Weather History for KNMM - June, 2013

Change the Weather History Date:

Thursday, June 13, 2013

  Actual Average Record
Temperature  
Mean Temperature 82 °F -  
Max Temperature 93 °F 85 °F 95 °F (2002)
Min Temperature 73 °F 67 °F 66 °F (2007)
Cooling Degree Days 17    
Growing Degree Days 32 (Base 50)    
Moisture  
Dew Point 72 °F    
Average Humidity 69    
Maximum Humidity 87    
Minimum Humidity 50    
Precipitation  
Precipitation 0.02 in - - ()
Sea Level Pressure  
Sea Level Pressure 29.97 in    
Wind  
Wind Speed 5 mph (West)    
Max Wind Speed 12 mph    
Max Gust Speed 20 mph    
Visibility 10 miles    
Events Rain , Thunderstorm    
Averages and records for this station are not official NWS values.
T = Trace of Precipitation, MM = Missing Value Source: NWS Daily Summary

Daily Weather History Graph

Daily Weather History Graph

Search for Another Location

Airport or City:

Trip Planner

Search our weather history database for the weather conditions in past years. The results will help you decide how hot, cold, wet, or windy it might be!

Date:

Astronomy

Jun. 13, 2013 Rise Set
Actual Time 5:46 AM CDT 8:02 PM CDT
Civil Twilight 5:17 AM CDT 8:31 PM CDT
Nautical Twilight 4:42 AM CDT 9:05 PM CDT
Astronomical Twilight 4:05 AM CDT 9:43 PM CDT
Moon 10:10 AM CDT (6/13) 11:23 PM CDT (6/13)
Length of Visible Light 15h 13m
Length of Day
14h 16m
Waxing Crescent, 22% of the Moon is Illuminated
Jun 13
Waxing Crescent
Jun 16
First Quarter
Jun 23
Full
Jun 29
Last Quarter
Jul 8
New

Hourly Weather History & Observations

Time (CDT) Temp. Heat Index Dew Point Humidity Pressure Visibility Wind Dir Wind Speed Gust Speed Precip Events Conditions
12:56 AM 75.9 °F - 71.1 °F 85% 30.03 in 10.0 mi Calm Calm - N/A   Clear
1:56 AM 75.9 °F - 71.1 °F 85% 30.02 in 10.0 mi Calm Calm - N/A   Clear
2:56 AM 75.0 °F - 71.1 °F 87% 30.02 in 10.0 mi Calm Calm - N/A   Clear
3:56 AM 73.9 °F - 70.0 °F 87% 30.02 in 10.0 mi Calm Calm - N/A   Clear
4:56 AM 73.9 °F - 70.0 °F 87% 30.03 in 10.0 mi Calm Calm - N/A   Clear
5:56 AM 73.0 °F - 69.1 °F 87% 30.04 in 9.0 mi WSW 3.5 mph - N/A   Clear
6:56 AM 75.0 °F - 70.0 °F 84% 30.04 in 10.0 mi WSW 3.5 mph - N/A   Clear
7:56 AM 79.0 °F - 71.1 °F 77% 30.05 in 10.0 mi West 6.9 mph - N/A   Clear
8:56 AM 84.0 °F 89.6 °F 72.0 °F 67% 30.06 in 10.0 mi WNW 11.5 mph - N/A   Clear
9:56 AM 87.1 °F 94.5 °F 73.0 °F 63% 30.04 in 10.0 mi WNW 10.4 mph - N/A   Partly Cloudy
10:56 AM 89.1 °F 96.0 °F 72.0 °F 57% 30.04 in 10.0 mi WSW 11.5 mph - N/A   Partly Cloudy
11:56 AM 90.0 °F 96.4 °F 71.1 °F 54% 30.02 in 10.0 mi West 9.2 mph 18.4 mph N/A   Scattered Clouds
12:56 PM 91.0 °F 98.2 °F 72.0 °F 53% 30.00 in 10.0 mi West 11.5 mph 19.6 mph N/A   Partly Cloudy
1:56 PM 91.9 °F 99.5 °F 72.0 °F 52% 29.98 in 10.0 mi WSW 10.4 mph - N/A   Partly Cloudy
2:56 PM 91.9 °F 99.5 °F 72.0 °F 52% 29.96 in 10.0 mi WSW 10.4 mph - N/A   Scattered Clouds
3:56 PM 91.9 °F 98.4 °F 71.1 °F 50% 29.94 in 10.0 mi West 9.2 mph - N/A   Scattered Clouds
4:56 PM 91.9 °F 98.4 °F 71.1 °F 50% 29.92 in 10.0 mi West 10.4 mph - N/A   Partly Cloudy
5:56 PM 91.0 °F 98.2 °F 72.0 °F 53% 29.90 in 10.0 mi West 10.4 mph - N/A   Partly Cloudy
6:56 PM 89.1 °F 97.0 °F 73.0 °F 59% 29.89 in 10.0 mi West 8.1 mph - N/A   Scattered Clouds
7:56 PM 84.9 °F 91.4 °F 73.0 °F 67% 29.88 in 10.0 mi WSW 5.8 mph - N/A   Scattered Clouds
8:56 PM 84.0 °F 90.2 °F 73.0 °F 69% 29.87 in 10.0 mi West 10.4 mph - N/A   Scattered Clouds
9:56 PM 82.9 °F 88.8 °F 73.0 °F 72% 29.87 in 10.0 mi WSW 6.9 mph - N/A   Mostly Cloudy
10:03 PM 82.4 °F 88.2 °F 73.4 °F 74% 29.86 in 10.0 mi SW 3.5 mph - N/A   Mostly Cloudy
10:22 PM 82.4 °F 88.2 °F 73.4 °F 74% 29.87 in 10.0 mi WSW 6.9 mph - N/A Thunderstorm Thunderstorm
10:56 PM 82.0 °F 88.6 °F 75.0 °F 79% 29.90 in 6.0 mi NW 10.4 mph - 0.02 in Rain , Thunderstorm Thunderstorms and Rain
11:56 PM 81.0 °F 85.8 °F 73.0 °F 77% 29.96 in 10.0 mi NNE 11.5 mph - 0.00 in Thunderstorm Thunderstorm